Dewpoint
70 70 69 69 70 70 70 69 69 69 70 71 71 72 73 73 74 74 74 74 74 74 74 75 75 75 76 76 76 76 76 76 75 75 75 74 73 73 72 71 70 69
70 70 70 70 70 71 70 70 70 70 70 70 71 72 73 73 73 73 73 74 74 74 74 74 75 75 75 75 76 75 75 75 75 75 75 74 74 73 72 72 71 70
70 70 70 69 69 69 69 70 70 70 69 69 71 72 72 73 73 73 73 73 73 73 74 74 75 75 75 76 76 75 75 75 75 75 75 74 74 73 73 71 71 70
70 70 69 69 69 69 70 70 70 70 70 70 69 71 72 73 73 73 73 74 73 73 74 74 74 75 75 75 75 75 75 75 75 75 75 75 74 73 73 73 71 71
70 70 70 70 70 70 70 70 69 69 69 70 69 71 72 73 73 73 73 73 73 73 74 74 74 74 75 75 75 75 75 75 75 75 75 74 74 74 73 73 72 71
70 70 71 70 70 70 70 70 70 69 69 69 70 71 71 72 73 73 73 73 73 73 73 73 74 74 74 75 75 75 75 74 75 75 74 74 74 74 73 73 72 71
70 70 70 70 70 70 70 70 70 70 70 70 71 70 71 72 72 72 73 73 72 73 73 73 74 74 75 75 75 75 75 75 75 74 74 74 74 74 73 73 73 72
70 70 70 70 70 70 70 69 70 70 70 71 70 71 71 71 72 72 72 72 72 73 73 73 73 74 74 75 75 75 74 74 74 74 74 74 74 74 74 73 73 73
70 70 70 70 69 69 69 69 69 70 71 70 70 70 71 71 71 71 72 73 72 73 73 73 73 73 74 74 74 74 74 74 74 74 74 74 73 74 73 74 73 73
70 70 69 69 69 69 69 69 69 69 71 70 70 70 71 72 72 72 72 72 72 72 73 73 73 73 73 74 74 74 74 74 74 74 74 74 74 74 73 73 73 73
69 69 69 69 69 69 69 69 69 69 70 70 70 70 70 71 72 72 72 72 72 72 72 72 73 73 73 73 74 74 74 74 74 74 74 74 74 74 74 74 73 73
69 69 69 69 69 69 69 69 69 69 69 70 70 70 71 71 71 72 72 72 72 72 72 72 73 73 73 73 73 74 74 74 74 74 74 74 74 74 74 74 73 73
69 69 69 69 69 69 69 69 69 69 69 69 70 70 70 70 70 71 72 72 72 72 72 72 72 73 73 73 73 74 74 74 74 74 74 74 74 74 74 74 73 73
68 69 69 69 69 70 70 69 69 69 69 70 70 70 70 70 70 70 71 72 72 72 73 73 73 73 73 73 73 73 73 73 74 74 74 74 74 74 74 73 74 73
69 69 69 70 70 70 70 70 70 70 70 70 70 70 70 70 71 71 71 71 72 72 72 73 72 72 72 72 73 73 73 73 73 73 73 73 74 73 74 74 74 74
70 70 70 70 70 70 70 70 70 70 70 70 70 70 70 71 71 71 71 71 71 72 72 72 72 72 70 65 67 72 73 73 73 73 73 73 73 73 73 73 73 73
70 70 70 70 70 70 71 71 70 70 70 70 70 70 70 71 71 70 70 71 71 71 72 72 72 71 65 63 63 65 71 73 73 73 73 74 73 73 73 73 73 74
70 70 70 70 70 70 71 71 71 71 71 71 70 70 71 70 70 70 70 70 70 71 71 72 72 67 64 63 63 62 65 72 73 73 73 73 73 73 73 73 73 73
70 70 70 71 71 71 71 71 71 71 71 70 70 70 71 71 71 70 70 70 70 70 70 71 71 66 63 62 62 62 62 66 72 72 73 73 73 73 73 73 73 73
70 70 70 71 71 71 71 71 71 71 70 70 70 71 71 71 70 70 70 71 70 70 70 70 71 66 62 61 61 61 61 63 71 72 73 73 73 73 73 73 73 73
71 71 70 71 71 71 71 71 71 71 71 70 70 70 70 70 70 70 70 71 70 70 70 69 69 64 61 60 60 59 60 62 70 72 72 73 73 73 73 73 73 74
71 71 71 71 71 71 71 71 71 71 71 71 71 70 71 70 71 71 70 70 71 70 70 70 69 62 60 59 59 59 60 66 70 71 72 72 72 73 73 74 74 74
71 71 71 71 71 71 71 71 71 71 71 71 71 71 70 70 70 70 71 70 70 71 70 70 70 65 60 58 58 58 59 68 69 70 71 71 72 72 73 73 73 73
71 71 71 71 71 71 71 71 71 71 71 71 71 70 70 70 70 70 70 70 70 70 70 70 70 67 60 57 57 56 61 69 70 70 71 71 71 72 73 73 73 71
72 72 71 71 71 71 71 71 71 72 72 72 71 71 71 71 71 70 70 70 70 70 67 69 70 67 60 57 56 55 61 69 70 70 70 71 71 71 72 72 73 72
72 72 72 72 72 72 72 72 72 72 72 72 71 71 71 71 71 70 70 70 70 70 70 70 70 70 68 57 56 55 57 69 70 70 70 71 71 71 71 72 72 73